www.pogodaiklimat.ru

Погода и климат >> Архив погоды >> Индонезия >> Merauke


ПОГОДА в Merauke

  • Прогноз погоды в Merauke
  • Монитор погоды в Merauke
  • Климат города

АРХИВ ПОГОДЫ в Merauke

Время (UTC), дата Ветер
(напр.,м/с)
 
Видим.   Явления Облачность Т
(С)
Тd
(С)
f
(%)
Тe
(С)
Тes
(С)
Комфортность P
(гПа)
Po
(гПа)
Тmin
(С)
Tmax
(С)
R
(мм)
R24
(мм)
S
(см)
03 18.04 В 3 8000 м 10/8 450 м
[Cu Sc Ac lent Cs]
+29.8 +23.6 69 +40 +42 очень
душно
1009.4 1009.1
06 18.04 С 3 10 км 9/6 500 м
[Cu Sc Ac lent Ci sp]
+30.0 +24.4 72 +42 +44 опасность
перегрева
1007.2 1006.8
09 18.04 ЮЗ 3 10 км 10/8 480 м
[Cu Sc Ac lent Ci sp]
+28.0 +24.9 83 +40 +40 очень
душно
1008.4 1008.0 0.0
12 18.04 штиль 0 4000 м слабый ливневой дождь, в посл. час гроза 9/8 480 м
[Cu Sc Ac lent Ci sp]
+26.0 +24.2 90 +36 +36 очень
душно
1010.1 1009.8 +31.1 3
15 18.04 штиль 0 4000 м слабый дождь 8/6 500 м
[Cu Sc Ac lent Ci sp]
+26.2 +25.2 94 +38 +38 очень
душно
1010.0 1009.7 0.4
18 18.04 штиль 0 6000 м 8/6 480 м
[Cu Sc Ac lent Ci sp]
+25.3 +24.2 94 +35 +35 очень
душно
1008.8 1008.6
21 18.04 СВ 2 8000 м 8/6 480 м
[Cu Sc Ac lent Ci sp]
+25.4 +24.6 95 +36 +36 очень
душно
1009.7 1009.3
00 19.04 штиль 0 8000 м 9/8 450 м
[Cu Sc Ac As Ci sp]
+28.1 +25.3 85 +41 +43 опасность
перегрева
1011.2 1010.8 +25.1 4
03 19.04 ЮЗ 4 8000 м 9/6 480 м
[Cu Sc Ac lent Ci sp]
+30.1 +25.4 76 +44 +48 опасность
перегрева
1008.5 1008.2
06 19.04 ЮВ 3 8000 м 9/8 480 м
[Cu Sc Ac lent Ci sp]
+29.1 +25.0 79 +42 +43 опасность
перегрева
1006.8 1006.5
09 19.04 В 2 8000 м 8/6 500 м
[Cu Sc Ac lent Ci sp]
+28.1 +25.0 83 +40 +40 очень
душно
1007.6 1007.2
12 19.04 В 1 8000 м 5/4 540 м
[Cu med, cong Ac lent Ci sp]
+26.6 +24.4 88 +37 +37 очень
душно
1009.7 1009.3 +30.3
15 19.04 штиль 0 8000 м 6/5 540 м
[Cu Sc Ac lent Ci sp]
+26.2 +24.6 91 +37 +37 очень
душно
1008.7 1008.3
18 19.04 штиль 0 8000 м 6/5 540 м
[Cu Sc Ac lent Ci sp]
+25.7 +24.6 94 +36 +36 очень
душно
1007.5 1007.1
21 19.04 В 1 8000 м 5/4 500 м
[Cu med, cong Ac lent Ci fib]
+25.2 +24.1 94 +35 +35 очень
душно
1009.0 1008.6
00 20.04 В 5 10 км 6/5 480 м
[Cu Sc Ac lent Ci sp]
+29.6 +24.6 75 +42 +45 опасность
перегрева
1010.0 1009.6 +25.2
03 20.04 ЮВ 2 10 км 6/5 480 м
[Cu Sc Ac lent Ci sp]
+31.5 +23.6 63 +43 +51 опасность
перегрева
1007.6 1007.3
06 20.04 СВ 3 7000 м в посл. час дождь 9/8 480 м
[Cu Sc Ac lent Ci sp]
+26.7 +25.1 91 +38 +39 очень
душно
1006.7 1006.3 5
09 20.04 штиль 0 8000 м зарница {дождь} 8/6 540 м
[Cb cap Ac lent Ci sp]
+27.5 +24.8 85 +39 +39 очень
душно
1007.9 1007.5 0.2
15 20.04 штиль 0 6000 м 6/4 500 м
[Cu med, cong Ac lent Ci sp]
+26.1 +25.0 94 +37 +37 очень
душно
1009.6 1009.2
18 20.04 штиль 0 6000 м 4/3 500 м
[Cu hum Ci fib]
+25.6 +24.7 95 +36 +36 очень
душно
1008.8 1008.4
21 20.04 штиль 0 8000 м 4/3 500 м
[Cu hum Ci fib]
+25.5 +24.6 95 +36 +36 очень
душно
1009.6 1009.3
00 21.04 В 2 9000 м 8/6 500 м
[Cu Sc Ac lent Ci sp]
+28.7 +24.8 79 +41 +44 опасность
перегрева
1010.5 1010.2 +25.5 6
03 21.04 ЮВ 5 10 км 8/6 480 м
[Cu Sc Ac lent Ci sp]
+30.3 +23.8 68 +41 +45 опасность
перегрева
1008.1 1007.8 0.0
06 21.04 ЮВ 4 10 км 8/6 500 м
[Cu Sc Ac lent Ci sp]
+30.4 +23.5 67 +41 +43 опасность
перегрева
1006.7 1006.3 0.0
09 21.04 ЮВ 3 7000 м в посл. час дождь 9/8 500 м
[Cu Sc Ac lent Ci sp]
+25.8 +23.4 87 +35 +35 очень
душно
1007.9 1007.6 7
12 21.04 В 2 8000 м {дождь} 6/4 540 м
[Sc Ac trans Ci sp]
+25.9 +23.3 86 +35 +35 очень
душно
1009.6 1009.2 +30.8 7
15 21.04 штиль 0 7000 м 8/6 450 м
[Cu Sc Ac lent Ci sp]
+25.4 +23.1 87 +34 +34 очень
душно
1008.9 1008.5
18 21.04 В 3 7000 м 8/6 540 м
[Cu Sc Ac lent Ci sp]
+25.3 +22.7 86 +33 +33 очень
душно
1008.5 1008.1
21 21.04 В 3 8000 м 8/6 540 м
[Cu Sc Ac lent Ci sp]
+24.9 +22.1 84 +32 +32 очень
душно
1009.4 1009.0
03 22.04 ЮВ 3 10 км 8/5 480 м
[Cu Sc Ac lent Ci sp]
+30.2 +22.8 65 +40 +45 очень
душно
1008.2 1007.8
06 22.04 Ю 3 10 км 8/6 500 м
[Cu Sc Ac lent Ci sp]
+30.6 +24.8 71 +43 +45 опасность
перегрева
1006.1 1005.7
09 22.04 ЮВ 2 10 км 5/4 500 м
[Cu med, cong Ac lent Ci sp]
+28.9 +23.2 71 +39 +39 очень
душно
1006.8 1006.4
12 22.04 штиль 0 8000 м 3/1 540 м
[Cu hum Ci fib]
+27.1 +23.8 82 +37 +37 очень
душно
1009.4 1009.1 +32.2
15 22.04 штиль 0 8000 м 3/1 540 м
[Cu hum Ci fib]
+26.1 +23.9 88 +36 +36 очень
душно
1009.3 1009.0
18 22.04 штиль 0 8000 м 5/4 500 м
[Cu hum Ci fib]
+25.9 +24.2 90 +36 +36 очень
душно
1007.7 1007.3
21 22.04 штиль 0 8000 м 6/4 540 м
[Sc Ac lent Ci sp]
+25.7 +24.3 92 +36 +36 очень
душно
1009.0 1008.7
00 23.04 ЮВ 3 10 км 6/5 500 м
[Cu Sc Ac lent Ci sp]
+30.0 +24.1 71 +42 +46 опасность
перегрева
1010.0 1009.7 +25.6
03 23.04 Ю 5 10 км в посл. час дождь 8/6 480 м
[Cu Sc Ac lent Ci sp]
+28.6 +23.1 72 +38 +42 очень
душно
1008.2 1007.8 1
06 23.04 ЮВ 3 8000 м 9/8 480 м
[Cu Sc Ac lent Ci sp]
+28.7 +22.4 69 +38 +39 очень
душно
1006.4 1006.0
09 23.04 ЮВ 3 8000 м 8/6 500 м
[Cu Sc Ac lent Ci sp]
+28.3 +24.1 78 +39 +39 очень
душно
1007.4 1007.0
12 23.04 штиль 0 8000 м 8/6 480 м
[Cu Sc Ac lent Ci sp]
+27.5 +24.1 82 +38 +38 очень
душно
1009.3 1009.0 +31.4
15 23.04 СВ 2 8000 м 5/4 540 м
[Sc Ac lent Ci sp]
+26.2 +24.2 89 +36 +36 очень
душно
1008.9 1008.5
18 23.04 штиль 0 8000 м 5/4 540 м
[Sc Ac trans Ci sp]
+25.2 +23.7 91 +34 +34 очень
душно
1007.8 1007.4
21 23.04 штиль 0 8000 м 4/3 540 м
[Cu hum Ci fib]
+24.6 +23.6 94 +33 +33 очень
душно
1009.2 1008.8
00 24.04 В 3 10 км 8/5 500 м
[Cu Sc Ac lent Ci sp]
+28.1 +24.6 81 +40 +43 очень
душно
1010.6 1010.2 +24.5 1
03 24.04 В 4 10 км 8/5 480 м
[Cu Sc Ac lent Ci sp]
+30.3 +22.2 62 +39 +44 очень
душно
1008.0 1007.6
06 24.04 ЮВ 3 10 км 8/6 500 м
[Cu Sc Ac lent Ci sp]
+28.6 +23.8 75 +39 +41 очень
душно
1005.8 1005.4
09 24.04 ЮВ 2 10 км 8/6 500 м
[Cu Sc Ac lent Ci sp]
+27.3 +22.9 77 +36 +36 очень
душно
1006.5 1006.5
12 24.04 ЮВ 2 10 км 8/6 480 м
[Cu Sc Ac trans Ci sp]
+27.1 +24.8 87 +39 +39 очень
душно
1009.1 1008.7 +30.5
15 24.04 ЮВ 2 8000 м 6/5 600 м
[Sc Ac lent Ci sp]
+26.6 +24.1 86 +37 +37 очень
душно
1008.4 1008.1

 

Местоположение метеостанции Merauke (Индонезия): широта -8.47 долгота 140.38 высота над уровнем моря 3 м.

В архиве по умолчанию представлена погода в Merauke за последнюю неделю. Архивные данные за месяц целиком и за предыдущие месяцы, начиная с января 2011 года, Вы можете получить, выбрав интересующий диапазон дат из раскрывающегося списка и нажав кнопку "Ввод!".


*Определитесь, кто Вы:
робот инопланетянин человек

Внимание! Время в таблицах - всемирное. Для получения местного времени необходимо прибавить поправку, которая в Merauke равна 9 ч.

Смотрите также архив погоды в соседних городах и на ближайших метеорологических станциях:

Погода в Tanah Merah (Индонезия) (264 км)
Погода в Horn Island (Квинсленд, Австралия) (314 км)
Погода в Coconut Island (Квинсленд, Австралия) (344 км)
Погода в Cape Wessel (Северная территория, Австралия) (488 км)
Погода в Weipa Aero (Квинсленд, Австралия) (497 км)
Погода в Scherger Raaf (Квинсленд, Австралия) (498 км)
Погода в Kokonao (Индонезия) (504 км)
Погода в Wamena (Индонезия) (514 км)
Погода в Lockhart River Airport (Квинсленд, Австралия) (576 км)
Погода в Gove Airport (Северная территория, Австралия) (576 км)

Пояснения к столбцам:

Ветер - указаны скорость ветра в м/с - средняя за 10 мин, порывы в срок и между сроками (в фигурных скобках) и направление, откуда дует ветер: С - северный, СВ - северо-восточный, В - восточный, ЮВ - юго-восточный, Ю - южный, ЮЗ - юго-западный, З - западный, СЗ - северо-западный.
Видимость - горизонтальная дальность видимости в метрах или километрах. При видимости от 1 до 10 км при отсутствии осадков обычно наблюдается дымка, при ухудшении видимости до 1 км и менее - туман. В сухую погоду видимость может ухудшаться дымом, пылью или мглою.
Явления - указаны атмосферные явления, наблюдавшиеся в срок или в последний час перед сроком; фигурными скобками обозначены явления, наблюдавшиеся между сроками (за 1-3 часа до срока); квадратными скобками обозначены град или гололедные отложения с указанием их диаметра в мм.
Облачность - указаны через наклонную черту общая и нижняя облачность в баллах и высота нижней границы облаков в метрах; квадратными скобками обозначены формы облаков: Ci - перистые, Cs - перисто-слоистые, Cc - перисто-кучевые, Ac - высококучевые, As - высокослоистые, Sc - слоисто-кучевые, Ns - слоисто-дождевые, Cu - кучевые, Cb - кучево-дождевые. Подробнее классификацию облаков см. в Атласе облаков (PDF).
T - Температура воздуха - температура, измеренная на высоте 2 м над землей.
Td - Температура точки росы - температура, при понижении до которой содержащийся в воздухе водяной пар достигнет насыщения.
f - Относительная влажность воздуха - влажноcть воздуха, измеренная на высоте 2 м над землей.
Te - Эффективная температура - температура, которую ощущает одетый по сезону человек в тени. Характеристика душности погоды. При расчете учитывается влияние влажности воздуха и скорости ветра на теплоощущения человека.
Tes - Эффективная температура на солнце - температура, которую ощущает человек, с поправкой на солнечный нагрев. Характеристика знойности погоды. Зависит от высоты солнца над горизонтом, облачности и скорости ветра. Ночью, в пасмурную погоду, а также при ветре 12 м/с и более поправка равна нулю.
P - Атмосферное давление - приведенное к уровню моря атмосферное давление.
Po - Атмосферное давление - измеренное на уровне метеостанции атмосферное давление.
Tmin - Минимальная температура - минимум температуры воздуха на высоте 2 м над землей.
Tmax - Максимальная температура - максимум температуры воздуха на высоте 2 м над землей.
R - Количество осадков - Количество выпавших осадков за период времени, мм. При наведении курсора мыши на число - период времени, за который выпало указанное количество осадков.
R24 - Количество осадков - Количество выпавших осадков за 24 часа, мм.
S - Снежный покров - Высота снежного покрова, см. При наведении курсора мыши на число - состояние снежного покрова и степень покрытия местности в баллах.